Location: Unspecified
(0.0000°N, 1.0000°E)
Time: 10:54:15
(UTC+01:00)

Daily predictions for brighter satellites

Satellite Brightness Start Highest point End
(mag) Time Altitude Azimuth Time Altitude Azimuth Time Altitude Azimuth
Ariane H10+ 4.5 18:03:44 10° W 18:07:59 63° N 18:36:11 10° E
Ariane H10+ 4.5 18:03:45 10° W 18:07:59 63° N 18:36:12 10° E
RESURS DK-1 2.3 19:10:11 10° SSW 19:14:18 85° ESE 19:18:25 10° NNE
Milstar 3 Cent rocket 4.5 18:54:53 10° SW 19:14:21 60° SSE 19:23:03 10° ENE
Cosmos 2344 3.9 19:10:07 10° SSW 19:19:19 61° ESE 19:26:53 10° NE
ARIANE 5 DEB (SYLDA) 4.0 19:14:32 10° W 19:19:27 34° SSW 19:21:40 10° SE
ARIANE 5 R/B 4.0 19:15:08 10° W 19:19:43 83° N 20:06:32 10° E
ARIANE 5 R/B 4.0 19:15:07 10° W 19:19:43 83° N 20:06:32 10° E
Cosmos 2297 Rocket 3.5 19:16:51 10° NE 19:20:30 17° ENE 19:24:07 10° ESE
XTE 4.4 19:18:18 10° W 19:20:36 24° NNW 19:22:53 10° NE
Delta 2 Rocket 4.5 19:13:57 10° NW 19:20:47 60° NNE 19:29:04 10° ESE
Cosmos 1271 Rocket 3.5 19:17:14 10° NNW 19:21:02 57° W 19:24:55 10° S
ARIANE 5 R/B 1.8 19:18:29 10° WNW 19:21:27 35° N 19:23:21 10° ENE
MONITOR-E 4.3 19:20:24 10° SSE 19:23:20 48° E 19:26:17 10° N
Ariane H10-3 2.9 19:21:32 10° NW 19:23:23 23° N 19:26:08 10° ENE
CZ-4 R/B 2.6 19:21:20 10° S 19:24:59 44° WSW 19:28:38 10° NNW
SL-16 R/B 2.8 19:22:25 10° S 19:27:38 38° ESE 19:32:49 10° NE
YAOGAN 1 3.0 19:27:27 10° S 19:31:45 66° WSW 19:36:01 10° NNW
Cosmos 1892 Rocket 3.9 19:27:32 10° SSE 19:31:48 45° E 19:36:03 10° NNE
ALOS 2.4 19:28:00 10° SSE 19:32:33 52° ENE 19:37:04 10° N
Cosmos 1607 4.0 19:26:40 10° NNW 19:33:02 88° WSW 19:39:19 10° SSE
USA 234 4.0 19:27:45 10° ENE 19:33:35 35° SE 19:39:24 10° S
Cosmos 1553 Rocket 4.1 19:27:50 10° S 19:34:03 58° E 19:40:18 10° NNE
Cosmos 2322 Rocket 2.6 19:29:07 10° S 19:34:26 44° ESE 19:39:42 10° NE
Lacrosse 5 4.2 19:32:21 10° WNW 19:36:39 28° WSW 19:40:59 10° S
Cosmos 1417 Rocket 4.4 19:30:51 10° S 19:36:58 75° E 19:43:04 10° N
Tiangong 2 1.5 19:37:32 10° SW 19:40:39 56° NW 19:43:03 15° NNE
Ariane 42L R/B 3.9 19:38:13 10° W 19:41:47 59° S 19:56:24 10° E
Thor Agena Rocket 3.8 19:38:10 10° N 19:43:25 73° WNW 19:48:42 10° SSW
FENGYUN 3A 3.6 19:39:22 10° SSE 19:44:46 69° ENE 19:50:06 10° N
FREGAT/IRIS 3.9 19:45:26 10° SE 19:47:29 22° E 19:47:29 22° E
NOAA 12 4.0 19:43:47 10° SSE 19:49:06 75° ENE 19:54:22 10° N
Meteor 1-15 Rocket 4.3 19:43:35 10° N 19:49:22 62° E 19:55:04 10° SSE
SEDSat Delta rocket 3.3 19:46:07 10° WNW 19:51:11 73° SSW 19:55:36 10° SE
USA 238 DEB 4.3 19:50:46 10° N 19:57:08 34° ENE 20:03:29 10° SE
USA 238 4.3 19:50:54 10° N 19:57:14 33° ENE 20:03:34 10° SE
Cosmos 1269 Rocket 4.4 19:53:52 10° N 19:58:47 40° ENE 20:03:42 10° SSE
H-2A R/B 2.9 19:56:52 10° SSE 20:00:32 47° E 20:03:08 17° N
Meteor 1-21 4.3 20:00:16 10° S 20:05:55 55° E 20:09:49 20° NNE
Cosmos 1048 Rocket 3.9 20:09:24 10° N 20:14:45 84° ENE 20:20:02 10° SSE
Delta 128 3.7 20:16:24 10° WSW 20:21:03 80° SSE 20:22:24 49° ENE
Cosmos 2082 3.5 20:18:09 10° NNW 20:23:47 83° ENE 20:29:26 10° SSE
USA 215 3.2 20:18:27 10° SE 20:25:01 90° NE 20:31:34 10° NW
H-2A ROCKET BODY 4.4 20:19:55 10° WSW 20:27:07 70° NNW 20:45:44 29° NE
Cosmos 2360 Rocket 2.2 20:26:19 10° S 20:31:50 58° ESE 20:32:34 54° ENE
Cosmos 2227 Rocket 3.0 20:31:49 10° NNW 20:37:15 50° WSW 20:42:42 10° S
CZ-3C R/B 3.8 20:25:43 10° WNW 20:41:29 28° N 20:42:23 28° N
Cosmos 1238 Rocket 3.6 20:40:51 10° SSW 20:44:46 57° W 20:45:34 48° NW
ATLAS 3B R/B 2.4 20:38:39 10° NNW 20:45:08 88° ENE 20:51:45 10° SSE
Centaur D AC-29 1.9 20:42:38 10° WNW 20:46:30 83° NNE 21:00:07 10° ESE
Cosmos 1842 4.2 20:42:52 10° SSW 20:46:34 44° W 20:46:34 44° W
Cosmos 2056 Rocket 3.7 20:41:20 10° S 20:45:57 57° SE 20:45:57 57° SE
ATLAS 2AS CENTAUR RB 3.6 20:45:55 10° WNW 20:46:33 13° NW 20:46:33 13° NW
ARIANE 5 DEB (SYLDA) 3.6 20:35:22 10° W 20:49:07 52° NNW 20:49:18 52° N
Ariane H10-3 3.3 20:16:06 10° W 20:49:20 81° N 20:50:38 60° ENE
Delta 7925 Rocket 3.9 20:47:05 10° WNW 20:51:43 53° SSW 20:52:42 46° SSE
ARIANE 5 DEB (SYLDA) 3.7 20:46:01 10° W 20:51:56 51° W 20:51:56 51° W
ARIANE 5 R/B 3.8 20:53:28 10° W 20:55:14 21° W 20:55:14 21° W
ATLAS 3B CENTAUR R/B 3.8 20:56:38 10° WNW 20:57:06 13° WNW 20:57:06 13° WNW
Cosmos 2297 Rocket 3.8 20:59:17 10° NW 21:04:14 32° WSW 21:09:13 10° SSW
ARIANE 5 R/B 3.2 20:54:53 10° W 21:14:03 77° WNW 21:14:03 77° WNW
USA 234 4.3 21:15:03 32° NNW 21:16:19 35° NW 21:22:08 10° WSW
Milstar 3 Cent rocket 4.2 21:44:31 10° W 21:52:21 34° WNW 21:52:21 34° WNW
CZ-3A R/B 4.3 22:01:12 10° SW 22:44:24 10° ENE 22:44:32 10° ENE
